Date String (YYYY-MM-DD hh:mm:ss) UTC,Instrument flags,Ambient pressure (hPa),Sample flow (lpm),Bypass flow (lpm),Sample temperature (°C),Ambient temperature (°C),ASC tube jacket temperature (°C),LED temperature (°C),Box temperature (°C),Sample RH (%),Span deviation,Mass concentration (μg/m³),Mass concentration (μg/m³),Mass concentration (μg/m³)
DateTimeUTC,F1_M11,P_M11,Q1_M11,Q2_M11,T1_M11,T2_M11,T3_M11,T4_M11,T5_M11,U1_M11,ZSPAN_M11,X0_M11,X2_M11,X1_M11
2021-10-17 16:00:00,,0830.5,5.00,0.00,28.7,28.0,00.0,37.6,30.6,11.2,0000.0,0008.92,0003.29,0002.42
2021-10-17 16:01:00,,0830.5,5.00,0.00,28.7,28.0,00.0,37.7,30.6,11.2,0000.0,0009.39,0003.27,0002.40
2021-10-17 16:02:00,,0830.5,5.01,0.00,28.8,28.0,00.0,37.7,30.6,11.2,0000.0,0009.06,0003.23,0002.38
2021-10-17 16:03:00,,0830.5,5.00,0.00,28.8,28.0,00.0,37.7,30.7,11.1,0000.0,0008.36,0003.20,0002.37
2021-10-17 16:04:00,,0830.5,5.01,0.00,28.8,28.0,00.0,37.7,30.7,11.2,0000.0,0008.37,0003.22,0002.38
2021-10-17 16:05:00,,0830.5,5.00,0.00,28.8,28.1,00.0,37.7,30.7,11.1,0000.0,0008.51,0003.27,0002.38
2021-10-17 16:06:00,,0830.5,5.00,0.00,28.8,28.1,00.0,37.8,30.7,11.1,0000.0,0008.09,0003.30,0002.38
2021-10-17 16:07:00,,0830.5,4.99,0.00,28.9,28.1,00.0,37.8,30.7,11.2,0000.0,0007.28,0003.33,0002.39
2021-10-17 16:08:00,,0830.4,5.01,0.00,28.9,28.2,00.0,37.8,30.8,11.1,0000.0,0007.16,0003.36,0002.39
2021-10-17 16:09:00,,0830.4,5.00,0.00,28.9,28.2,00.0,37.8,30.8,11.0,0000.0,0007.38,0003.38,0002.38
2021-10-17 16:10:00,,0830.4,4.99,0.00,28.9,28.2,00.0,37.8,30.8,10.9,0000.0,0007.34,0003.39,0002.38
2021-10-17 16:11:00,,0830.4,5.00,0.00,29.0,28.2,00.0,37.9,30.8,10.9,0000.0,0007.09,0003.36,0002.39
2021-10-17 16:12:00,,0830.4,5.01,0.00,29.0,28.3,00.0,37.9,30.9,11.0,0000.0,0006.58,0003.34,0002.38
2021-10-17 16:13:00,,0830.4,5.00,0.00,29.0,28.3,00.0,37.9,30.9,10.8,0000.0,0007.40,0003.34,0002.39
2021-10-17 16:14:00,,0830.4,5.00,0.00,29.0,28.3,00.0,37.9,30.9,10.9,0000.0,0008.03,0003.31,0002.38
2021-10-17 16:15:00,,0830.4,5.00,0.00,29.0,28.3,00.0,37.9,30.9,11.1,0000.0,0007.95,0003.29,0002.38
2021-10-17 16:16:00,,0830.4,4.99,0.00,29.1,28.4,00.0,38.0,30.9,11.0,0000.0,0007.97,0003.30,0002.40
2021-10-17 16:17:00,,0830.4,5.02,0.00,29.1,28.4,00.0,38.0,31.0,11.0,0000.0,0007.92,0003.28,0002.41
2021-10-17 16:18:00,,0830.4,5.00,0.00,29.1,28.4,00.0,38.0,31.0,11.0,0000.0,0007.85,0003.27,0002.42
2021-10-17 16:19:00,,0830.4,4.99,0.00,29.1,28.4,00.0,38.0,31.0,10.9,0000.0,0008.17,0003.31,0002.44
2021-10-17 16:20:00,,0830.3,5.00,0.00,29.2,28.4,00.0,38.1,31.0,11.0,0000.0,0008.60,0003.31,0002.47
2021-10-17 16:21:00,,0830.3,5.01,0.00,29.2,28.5,00.0,38.1,31.0,11.0,0000.0,0008.86,0003.35,0002.52
2021-10-17 16:22:00,,0830.3,5.01,0.00,29.2,28.5,00.0,38.1,31.1,11.0,0000.0,0009.15,0003.43,0002.54
2021-10-17 16:23:00,,0830.2,4.99,0.00,29.2,28.5,00.0,38.1,31.1,11.1,0000.0,0009.03,0003.48,0002.58
2021-10-17 16:24:00,,0830.2,4.99,0.00,29.2,28.5,00.0,38.1,31.1,11.2,0000.0,0008.92,0003.51,0002.61
2021-10-17 16:25:00,,0830.3,5.02,0.00,29.2,28.6,00.0,38.2,31.1,11.1,0000.0,0008.57,0003.51,0002.64
2021-10-17 16:26:00,,0830.3,5.00,0.00,29.3,28.6,00.0,38.2,31.1,11.0,0000.0,0008.62,0003.54,0002.68
2021-10-17 16:27:00,,0830.2,5.00,0.00,29.3,28.6,00.0,38.2,31.1,11.0,0000.0,0009.04,0003.52,0002.69
2021-10-17 16:28:00,,0830.3,5.00,0.00,29.3,28.6,00.0,38.2,31.2,11.1,0000.0,0009.53,0003.53,0002.70
2021-10-17 16:29:00,,0830.2,5.00,0.00,29.3,28.6,00.0,38.2,31.2,11.0,0000.0,0009.69,0003.56,0002.70
2021-10-17 16:30:00,,0830.2,4.99,0.00,29.4,28.6,00.0,38.3,31.2,11.0,0000.0,0009.70,0003.57,0002.70
2021-10-17 16:31:00,,0830.2,5.00,0.00,29.4,28.6,00.0,38.3,31.2,11.0,0000.0,0009.18,0003.54,0002.70
2021-10-17 16:32:00,,0830.3,5.00,0.00,29.4,28.6,00.0,38.3,31.2,10.9,0000.0,0008.94,0003.53,0002.67
2021-10-17 16:33:00,,0830.2,5.00,0.00,29.4,28.7,00.0,38.3,31.2,10.9,0000.0,0008.97,0003.50,0002.67
2021-10-17 16:34:00,,0830.2,5.02,0.00,29.4,28.7,00.0,38.3,31.3,10.9,0000.0,0009.27,0003.54,0002.65
2021-10-17 16:35:00,,0830.2,5.00,0.00,29.4,28.7,00.0,38.4,31.3,10.7,0000.0,0009.75,0003.54,0002.64
2021-10-17 16:36:00,,0830.2,5.01,0.00,29.5,28.7,00.0,38.4,31.3,10.7,0000.0,0009.72,0003.56,0002.63
2021-10-17 16:37:00,,0830.1,5.00,0.00,29.5,28.8,00.0,38.4,31.3,10.6,0000.0,0009.92,0003.58,0002.60
2021-10-17 16:38:00,,0830.2,5.00,0.00,29.5,28.8,00.0,38.4,31.3,10.7,0000.0,0009.60,0003.62,0002.57
2021-10-17 16:39:00,,0830.1,4.99,0.00,29.5,28.8,00.0,38.4,31.4,10.7,0000.0,0009.19,0003.60,0002.55
2021-10-17 16:40:00,,0830.1,5.00,0.00,29.5,28.8,00.0,38.5,31.4,10.7,0000.0,0009.18,0003.59,0002.52
2021-10-17 16:41:00,,0830.1,5.01,0.00,29.6,28.8,00.0,38.5,31.4,10.6,0000.0,0008.99,0003.58,0002.49
2021-10-17 16:42:00,,0830.1,5.00,0.00,29.6,28.8,00.0,38.5,31.4,10.4,0000.0,0009.00,0003.59,0002.49
2021-10-17 16:43:00,,0830.1,5.00,0.00,29.6,28.9,00.0,38.5,31.4,10.3,0000.0,0009.05,0003.58,0002.47
2021-10-17 16:44:00,,0830.1,5.01,0.00,29.6,28.9,00.0,38.5,31.5,10.3,0000.0,0008.88,0003.56,0002.45
2021-10-17 16:45:00,,0830.1,5.00,0.00,29.6,28.9,00.0,38.6,31.5,10.3,0000.0,0008.77,0003.52,0002.44
2021-10-17 16:46:00,,0830.1,5.01,0.00,29.7,28.9,00.0,38.6,31.5,10.2,0000.0,0007.91,0003.54,0002.44
2021-10-17 16:47:00,,0830.1,5.00,0.00,29.7,28.9,00.0,38.6,31.5,10.2,0000.0,0007.64,0003.55,0002.44
2021-10-17 16:48:00,,0830.1,5.00,0.00,29.7,28.9,00.0,38.6,31.5,10.2,0000.0,0007.42,0003.55,0002.44
2021-10-17 16:49:00,,0830.1,5.01,0.00,29.7,29.0,00.0,38.6,31.6,10.2,0000.0,0007.10,0003.49,0002.44
2021-10-17 16:50:00,,0830.1,4.99,0.00,29.7,29.0,00.0,38.6,31.6,10.2,0000.0,0006.78,0003.46,0002.45
2021-10-17 16:51:00,,0830.1,5.01,0.00,29.8,29.0,00.0,38.7,31.6,10.0,0000.0,0006.99,0003.47,0002.47
2021-10-17 16:52:00,,0830.1,5.01,0.00,29.8,29.1,00.0,38.7,31.6,10.0,0000.0,0007.76,0003.41,0002.48
2021-10-17 16:53:00,,0830.1,5.01,0.00,29.8,29.1,00.0,38.7,31.6,09.9,0000.0,0007.82,0003.39,0002.49
2021-10-17 16:54:00,,0830.1,5.00,0.00,29.8,29.1,00.0,38.7,31.7,09.9,0000.0,0008.15,0003.42,0002.51
2021-10-17 16:55:00,,0830.1,5.00,0.00,29.8,29.1,00.0,38.7,31.7,10.0,0000.0,0009.18,0003.45,0002.52
2021-10-17 16:56:00,,0830.1,5.01,0.00,29.8,29.1,00.0,38.8,31.7,10.3,0000.0,0009.78,0003.45,0002.53
2021-10-17 16:57:00,,0830.0,5.00,0.00,29.9,29.2,00.0,38.8,31.7,10.3,0000.0,0009.88,0003.43,0002.53
2021-10-17 16:58:00,,0830.0,5.00,0.00,29.9,29.2,00.0,38.8,31.8,10.3,0000.0,0010.64,0003.43,0002.53
2021-10-17 16:59:00,,0830.0,4.99,0.00,29.9,29.2,00.0,38.8,31.7,10.3,0000.0,0011.44,0003.43,0002.53
